Tekamah, NE

1:42 AM CST on January 21, 2017 (GMT -0600)
Tekamah

Weather History for KTQE - March, 2013

Change the Weather History Date:

Friday, March 22, 2013

  Actual Average Record
Temperature  
Mean Temperature 30 °F -  
Max Temperature 35 °F 51 °F 75 °F (2015)
Min Temperature 25 °F 27 °F 2 °F (1955)
Degree Days  
Heating Degree Days 35    
Moisture  
Dew Point 20 °F    
Average Humidity 64    
Maximum Humidity 75    
Minimum Humidity 52    
Precipitation  
Precipitation 0.00 in - - ()
Sea Level Pressure  
Sea Level Pressure 30.04 in    
Wind  
Wind Speed 6 mph (East)    
Max Wind Speed 12 mph    
Max Gust Speed -    
Visibility 8 miles    
Events      
Averages and records for this station are not official NWS values.
T = Trace of Precipitation, MM = Missing Value Source: NWS Daily Summary

Daily Weather History Graph

Daily Weather History Graph

Search for Another Location

Airport or City:

Trip Planner

Search our weather history database for the weather conditions in past years. The results will help you decide how hot, cold, wet, or windy it might be!

Date:

Astronomy

Mar. 22, 2013 Rise Set
Actual Time 7:24 AM CDT 7:39 PM CDT
Civil Twilight 6:56 AM CDT 8:07 PM CDT
Nautical Twilight 6:23 AM CDT 8:39 PM CDT
Astronomical Twilight 5:50 AM CDT 9:13 PM CDT
Moon 3:04 PM CDT (3/22) 4:28 AM CDT (3/22)
Length of Visible Light 13h 10m
Length of Day
12h 15m
Waxing Gibbous, 77% of the Moon is Illuminated
Mar 22
Waxing Gibbous
Mar 27
Full
Apr 2
Last Quarter
Apr 10
New
Apr 18
First Quarter

Hourly Weather History & Observations

Time (CDT) Temp. Windchill Dew Point Humidity Pressure Visibility Wind Dir Wind Speed Gust Speed Precip Events Conditions
12:54 AM 28.9 °F 19.2 °F 19.9 °F 69% 30.04 in 10.0 mi East 11.5 mph - N/A   Scattered Clouds
1:54 AM 28.9 °F 23.9 °F 19.9 °F 69% 30.05 in 10.0 mi ESE 4.6 mph - N/A   Overcast
2:54 AM 28.9 °F 22.8 °F 19.9 °F 69% 30.05 in 10.0 mi ENE 5.8 mph - N/A   Overcast
3:54 AM 28.0 °F 19.3 °F 19.0 °F 69% 30.04 in 9.0 mi East 9.2 mph - N/A   Overcast
4:54 AM 27.0 °F 19.5 °F 18.0 °F 69% 30.03 in 9.0 mi East 6.9 mph - N/A   Overcast
5:54 AM 26.1 °F 20.5 °F 18.0 °F 71% 30.03 in 9.0 mi East 4.6 mph - N/A   Overcast
6:54 AM 25.0 °F 16.3 °F 17.1 °F 72% 30.04 in 9.0 mi East 8.1 mph - N/A   Overcast
7:54 AM 25.0 °F 18.1 °F 17.1 °F 72% 30.04 in 8.0 mi East 5.8 mph - N/A   Overcast
8:54 AM 26.1 °F 19.4 °F 17.1 °F 69% 30.03 in 8.0 mi East 5.8 mph - N/A   Overcast
9:54 AM 27.0 °F 19.5 °F 17.1 °F 66% 30.04 in 8.0 mi SE 6.9 mph - N/A   Overcast
10:54 AM 28.0 °F 21.7 °F 18.0 °F 66% 30.04 in 8.0 mi East 5.8 mph - N/A   Overcast
11:54 AM 30.0 °F 23.2 °F 18.0 °F 61% 30.04 in 7.0 mi ESE 6.9 mph - N/A   Overcast
12:54 PM 30.9 °F 23.5 °F 19.0 °F 61% 30.04 in 8.0 mi SE 8.1 mph - N/A   Overcast
1:54 PM 33.1 °F 26.9 °F 19.0 °F 56% 30.04 in 8.0 mi SSE 6.9 mph - N/A   Overcast
2:54 PM 33.1 °F - 19.0 °F 56% 30.02 in 8.0 mi Calm Calm - N/A   Overcast
3:54 PM 34.0 °F - 19.0 °F 54% 30.02 in 8.0 mi Calm Calm - N/A   Overcast
4:54 PM 34.0 °F 29.8 °F 19.9 °F 56% 30.02 in 8.0 mi ENE 4.6 mph - N/A   Overcast
5:54 PM 35.1 °F 30.1 °F 19.0 °F 52% 30.02 in 8.0 mi ESE 5.8 mph - N/A   Overcast
6:54 PM 35.1 °F 32.2 °F 19.9 °F 54% 30.02 in 7.0 mi East 3.5 mph - N/A   Overcast
7:54 PM 34.0 °F 29.8 °F 21.0 °F 59% 30.03 in 10.0 mi ESE 4.6 mph - N/A   Overcast
8:54 PM 34.0 °F - 21.9 °F 61% 30.05 in 9.0 mi Calm Calm - N/A   Overcast
9:54 PM 33.1 °F - 24.1 °F 70% 30.06 in 9.0 mi Calm Calm - N/A   Overcast
10:54 PM 33.1 °F - 24.1 °F 70% 30.06 in 8.0 mi Calm Calm - N/A   Overcast
11:54 PM 32.0 °F 27.5 °F 25.0 °F 75% 30.07 in 7.0 mi North 4.6 mph - N/A   Overcast